Location: Newark
(41.0400°S, 62.7845°W)
Time: 22:06:20
(UTC+00:00)

Explorer 7 - All Passes

Search period start: 06 December 2021 00:00
Search period end: 16 December 2021 00:00
Orbit: 483 x 675 km, 50.3° (Epoch: 06 December)

Date Brightness Start Highest point End Pass type
(mag) Time Alt. Az. Time Alt. Az. Time Alt. Az.
06 Dec - 01:30:56 10° SW 01:35:19 37° SSE 01:39:52 10° E visible
06 Dec - 03:11:23 10° WSW 03:16:11 70° NW 03:21:05 10° NE visible
06 Dec - 04:53:43 10° W 04:56:07 14° NW 04:58:30 10° NNW visible
06 Dec - 18:54:40 10° NNE 18:56:04 11° NE 18:57:29 10° ENE daylight
06 Dec - 20:31:39 10° NW 20:35:47 74° NE 20:40:15 10° ESE daylight
06 Dec - 22:12:40 10° W 22:16:38 33° SSW 22:20:51 10° SE daylight
06 Dec - 23:54:17 10° SW 23:58:08 26° S 00:02:09 10° ESE daylight
07 Dec - 01:34:57 10° SW 01:39:30 47° SSE 01:44:13 10° E visible
07 Dec - 03:15:30 10° WSW 03:20:07 46° NW 03:24:49 10° NNE visible
07 Dec - 18:56:51 10° N 18:59:47 19° NE 19:02:50 10° E daylight
07 Dec - 20:35:39 10° WNW 20:39:48 74° SSW 20:44:17 10° SE daylight
07 Dec - 22:17:04 10° WSW 22:20:53 28° S 22:24:55 10° SE daylight
07 Dec - 23:58:28 10° SW 00:02:25 28° S 00:06:32 10° ESE visible
08 Dec - 01:38:56 10° SW 01:43:37 62° SSE 01:48:28 10° ENE visible
08 Dec - 03:19:47 10° WSW 03:24:00 30° NW 03:28:16 10° NNE visible
08 Dec - 19:00:00 10° NNW 19:03:34 31° NE 19:07:22 10° ESE daylight
08 Dec - 20:39:49 10° WNW 20:43:54 52° SSW 20:48:17 10° SE daylight
08 Dec - 22:21:27 10° WSW 22:25:10 26° S 22:29:03 10° SE daylight
09 Dec - 00:02:34 10° SW 00:06:40 31° SSE 00:10:57 10° ESE visible
09 Dec - 01:42:56 10° WSW 01:47:41 87° SE 01:52:35 10° ENE visible
09 Dec - 03:24:21 10° W 03:27:48 20° NW 03:31:18 10° N visible
09 Dec - 19:03:32 10° NW 19:07:26 50° NE 19:11:37 10° ESE daylight
09 Dec - 20:44:06 10° W 20:48:03 39° SSW 20:52:15 10° SE daylight
09 Dec - 22:25:47 10° SW 22:29:27 25° S 22:33:17 10° SE daylight
10 Dec - 00:06:35 10° SW 00:10:53 38° SSE 00:15:22 10° E visible
10 Dec - 01:46:59 10° WSW 01:51:40 65° NW 01:56:30 10° NE visible
10 Dec - 03:29:41 10° WNW 03:31:34 12° NW 03:33:26 10° NNW visible
10 Dec - 17:29:59 10° NNE 17:31:37 12° NE 17:33:15 10° ENE daylight
10 Dec - 19:07:21 10° NW 19:11:23 80° NE 19:15:43 10° ESE daylight
10 Dec - 20:48:28 10° W 20:52:15 31° SSW 20:56:16 10° SE daylight
10 Dec - 22:30:01 10° SW 22:33:44 25° S 22:37:37 10° ESE daylight
11 Dec - 00:10:34 10° SW 00:15:02 48° SSE 00:19:41 10° E visible
11 Dec - 01:51:08 10° WSW 01:55:35 42° NW 02:00:10 10° NNE visible
11 Dec - 17:32:23 10° N 17:35:20 20° NE 17:38:25 10° E daylight
11 Dec - 19:11:23 10° WNW 19:15:24 68° SSW 19:19:44 10° SE daylight
11 Dec - 20:52:51 10° WSW 20:56:29 27° S 21:00:20 10° SE daylight
11 Dec - 22:34:09 10° SW 22:38:00 27° S 22:42:00 10° ESE daylight
12 Dec - 00:14:32 10° SW 00:19:07 66° SSE 00:23:54 10° ENE visible
12 Dec - 01:55:27 10° WSW 01:59:27 27° NW 02:03:32 10° NNE visible
12 Dec - 17:35:36 10° NNW 17:39:08 33° NE 17:42:53 10° ESE daylight
12 Dec - 19:15:34 10° W 19:19:29 47° SSW 19:23:42 10° SE daylight
12 Dec - 20:57:13 10° WSW 21:00:45 24° S 21:04:28 10° SE daylight
12 Dec - 22:38:13 10° SW 22:42:13 31° SSE 22:46:24 10° E daylight
13 Dec - 00:18:32 10° WSW 00:23:09 88° NW 00:27:58 10° NE visible
13 Dec - 02:00:06 10° W 02:03:14 18° NW 02:06:26 10° N visible
13 Dec - 17:39:11 10° NW 17:43:00 54° NE 17:47:05 10° ESE daylight
13 Dec - 19:19:52 10° W 19:23:38 36° SSW 19:27:40 10° SE daylight
13 Dec - 21:01:32 10° SW 21:05:02 24° S 21:08:42 10° SE daylight
13 Dec - 22:42:13 10° SW 22:46:24 38° SSE 22:50:47 10° E daylight
14 Dec - 00:22:35 10° WSW 00:27:07 59° NW 00:31:50 10° NE visible
14 Dec - 02:06:01 10° WNW 02:06:58 11° NW 02:07:57 10° NW visible
14 Dec - 16:05:19 10° NNE 16:07:08 13° NE 16:08:59 10° E daylight
14 Dec - 17:43:02 10° NW 17:46:58 87° NE 17:51:09 10° ESE daylight
14 Dec - 19:24:14 10° WSW 19:27:50 29° SSW 19:31:39 10° SE daylight
14 Dec - 21:05:44 10° SW 21:09:18 25° S 21:13:02 10° ESE daylight
14 Dec - 22:46:11 10° SW 22:50:31 50° SSE 22:55:06 10° ENE daylight
15 Dec - 00:26:46 10° WSW 00:31:01 38° NW 00:35:27 10° NNE visible
15 Dec - 16:07:53 10° N 16:10:52 22° NE 16:13:59 10° E daylight
15 Dec - 17:47:05 10° WNW 17:50:59 62° SSW 17:55:08 10° SE daylight
15 Dec - 19:28:37 10° WSW 19:32:04 25° S 19:35:42 10° SE daylight
15 Dec - 21:09:50 10° SW 21:13:32 27° SSE 21:17:25 10° ESE daylight
15 Dec - 22:50:09 10° SW 22:54:35 70° SSE 22:59:17 10° ENE daylight
